Regional Weather Roundup
Issued by NWS Upton, NY

Home | Current Version | Previous Version | Text Only | Print | Product List | Glossary On
Versions: 1 2 3 4 5 6 7 8 9 10 11 12 13 14 15 16 17 18 19 20 21 22 23 24 25 26 27 28 29 30 31 32 33 34 35 36 37 38 39 40 41 42 43 44 45 46 47 48 49 50
000
ASUS41 KOKX 060308
RWROKX

REGIONAL WEATHER ROUNDUP
NATIONAL WEATHER SERVICE NEW YORK NY
1000 PM EST MON DEC 05 2016

NOTE: "FAIR" INDICATES FEW OR NO CLOUDS BELOW 12,000 FEET WITH NO
SIGNIFICANT WEATHER AND/OR OBSTRUCTIONS TO VISIBILITY.

NYZ071-072-176-178-NJZ106-104-060400-
NEW YORK CITY METRO AREA

CITY           SKY/WX    TMP DP  RH WIND       PRES   REMARKS
Central Park   PTCLDY    45  31  58 VRB3      30.11R
Wall St Helipt CLOUDY    46  34  62 W5        30.10S
Bronx Bot Gard NOT AVBL
LaGuardia APRT MOCLDY    46  32  58 NW8       30.09R
Kennedy INTL   MOCLDY    45  29  53 NW9       30.10R
Breezy Point     N/A     43 N/A N/A NW5         N/A
Newark/Liberty MOCLDY    42  34  73 W7        30.09S
Teterboro      CLOUDY    42  32  67 NW3       30.08S
$$

NYZ177-179-078>081-060400-
LONG ISLAND NEW YORK

CITY           SKY/WX    TMP DP  RH WIND       PRES   REMARKS
Jones Beach      N/A     43 N/A N/A NW5         N/A
Matinecock PT  NOT AVBL
Farmingdale    PTCLDY    42  29  59 NW5       30.08S
MacArthur/ISP  MOCLDY    39  29  67 W5        30.07R
Shirley        PTCLDY    35  30  82 W3        30.08R
Westhampton    CLEAR     28  26  92 CALM      30.08R
Southampton    NOT AVBL
Bridgehampton  NOT AVBL
East Hampton     N/A     39  32  76 CALM      30.05R
Montauk          N/A     45  32  60 NW12G25   30.05R
$$

NYZ052-065-067-060400-
HUDSON VALLEY

CITY           SKY/WX    TMP DP  RH WIND       PRES   REMARKS
White Plains   CLEAR     40  27  59 W8        30.06R WCI  34
Newburgh       CLEAR     36  28  75 W9        30.07R WCI  29
Montgomery     CLEAR     34  26  72 SW3       30.06S
Poughkeepsie   CLOUDY    38  27  64 W8        30.05S WCI  32
Albany         MOCLDY    38  31  76 W7        30.04R WCI  33
$$

NJZ001-105-106-008-010-013-015-019>022-104-060400-
NEW JERSEY

CITY           SKY/WX    TMP DP  RH WIND       PRES   REMARKS
Newark/Liberty MOCLDY    42  34  73 W7        30.09S
Teterboro      CLOUDY    42  32  67 NW3       30.08S
Caldwell       CLOUDY    35  33  92 CALM      30.10R
Somerville     PTCLDY    31  29  92 CALM      30.08S
Linden           N/A     39  32  77 CALM      30.10R
Sussex         CLOUDY    29  28  96 CALM      30.08R
Andover          N/A     29  28  96 CALM      30.09R
Trenton        CLOUDY    40  31  70 NW3       30.09F
Millville      CLOUDY    34  34 100 CALM      30.10S
Atlantic City  CLOUDY    36  32  85 NW5       30.09S WCI  32
Wrightstown    PTCLDY    39  33  79 NW7       30.07S WCI  34
Toms River     PTCLDY    31  29  92 CALM      30.10S
Belmar         PTCLDY    36  32  85 W6        30.10S WCI  31
$$

PAZ047>061-062-071-060400-
EASTERN PENNSYLVANIA

CITY           SKY/WX    TMP DP  RH WIND       PRES   REMARKS
Philadelphia   CLOUDY    43  31  62 NW6       30.11S
Allentown      CLOUDY    39  28  64 W5        30.10S
Scranton       CLOUDY    36  28  73 W3        30.08R
$$

CTZ002-004>006-009-010-012-RIZ004-006-007-MAZ004-011-015-060400-
SOUTHERN NEW ENGLAND
 IN CT

CITY           SKY/WX    TMP DP  RH WIND       PRES   REMARKS
Bradley INTL   CLOUDY    36  29  75 W3        30.03R
Hartford       CLOUDY    40  31  70 W7        30.04R
Danbury        CLEAR     28  26  92 W6        30.06  WCI  22
Wtrbury/Oxford CLEAR     30  25  80 CALM      30.05S
Bridgeport     CLEAR     40  30  67 W5        30.07R
Meriden        CLOUDY    32  28  85 CALM      30.05S
New Haven      CLEAR     41  33  73 CALM      30.06R
Chester        MOCLDY    37  32  81 W6        30.04R WCI  33
Groton         CLEAR     42  34  73 W8        30.04R
Wilimantic     CLOUDY    31  30  96 CALM      30.04R

 IN RI

CITY           SKY/WX    TMP DP  RH WIND       PRES   REMARKS
Providence     CLEAR     39  30  70 W7        30.02R WCI  34
Block Island   CLEAR     44  32  62 NW16G23   30.03R
Westerly       CLEAR     38  30  73 W3        30.04R
 IN MA

CITY           SKY/WX    TMP DP  RH WIND       PRES   REMARKS
Boston         CLEAR     39  32  76 W14       29.98R WCI  31
Worcester      CLOUDY    34  29  82 W9        29.97S WCI  27
Westfield      CLOUDY    32  32 100 CALM      30.02S
Provincetown   CLEAR     43  35  73 NW24G30   29.96R
Nantucket      CLEAR     41  33  73 NW14      29.97R
$$

ANZ330-335-338-340-345-350-353-355-060400-
COASTAL MARINE OBSERVATIONS


STATION/POSITION TIME  SKY/WX   TEMP    WIND        PRES    VSBY  WAVE
                                AIR SEA DIR/SP/G                  HT/PER
                 (UTC)          (F)     (DEG/KT/KT) (MB)    (MI)  (FT/S)
NY HARB ENTRANCE 0250            47 53  320/ 10/ 12 1018.7          2/11
20 S FIRE ISLAND 0250            47 54  340/ 19/ 23 1018.0          3/ 4
GREAT SOUTH BAY  NOT AVBL
23 SSW MONTAUK P 0250            47 53  300/ 17/ 21 1017.6          4/ 4
15 E BARNEGAT LI 0230               54                N/A           2/ 3
HUDSON CANYON    0250            50 58              1016.9          5/ 6
KINGS POINT      0248            45 48              1018.5
EXECUTION ROCKS  0245            45     290/  6/  8   N/A
CENTRAL LI SOUND 0230            46 50  290/ 16/ 17   N/A           2/ 3
EASTERN LI SOUND NOT AVBL
ROBBINS REEF     0248            44     290/  6/  7 1019.1
$$


>>>>>>>>>>>>>>>>>>>>>>>>>>>> KEY <<<<<<<<<<<<<<<<<<<<<<<<<<<
>                                                          <
>     SKY/WX - Sky Condition/Present Weather               <
>     TMP    - Temperature in Fahrenheit                   <
>     DP     - Dew Point in Fahrenheit                     <
>     RH     - Relative Humidity in Percent                <
>     WIND   - Direction (from) and Speed in MPH           <
>     PRES   - Mean Sea Level Pressure (inches of Hg)      <
>     WCI    - Wind Chill Index                            <
>     VSB    - VISIBILITY IN MILES                         <
>     HX     - HEAT INDEX                                  <
>     TC     - TEMPERATURE IN CELSIUS                      <
>     VRB    - VARIABLE WIND DIRECTION                     <
>                                                          <
>>>>>>>>>>>>>>>>>>>>>>>>>>>> KEY <<<<<<<<<<<<<<<<<<<<<<<<<<<



USA.gov is the U.S. government's official web portal to all federal, state and local government web resources and services.